Location: Earls Croome
(52.0667°N, 2.2000°W)
Time: 21:20:37
(UTC+00:00)

Envisat - Visible Passes

Search period start: 20 September 2020 00:00
Search period end: 30 September 2020 00:00
Orbit: 764 x 766 km, 98.1° (Epoch: 20 September)

Date Brightness Start Highest point End Pass type
(mag) Time Alt. Az. Time Alt. Az. Time Alt. Az.
20 Sep 6.2 04:56:02 10° NE 04:59:05 16° E 05:02:08 10° ESE visible
21 Sep 6.4 18:59:44 10° WSW 19:02:04 13° W 19:04:24 10° WNW visible
22 Sep 5.7 05:20:41 10° NE 05:24:51 25° E 05:29:01 10° SSE visible
23 Sep 6.4 04:45:18 10° ENE 04:47:33 13° E 04:49:48 10° ESE visible
24 Sep 6.2 18:47:26 10° SW 18:50:32 16° W 18:53:39 10° NW visible
25 Sep 6.0 05:09:35 10° NE 05:13:22 21° E 05:17:08 10° SE visible
26 Sep 6.7 04:35:31 10° ENE 04:36:00 10° E 04:36:30 10° E visible
27 Sep 6.1 18:35:23 10° SW 18:39:01 20° W 18:42:41 10° NW visible
28 Sep 6.1 04:58:35 10° NE 05:01:52 17° E 05:05:07 10° SE visible
29 Sep 6.5 19:02:54 10° WSW 19:04:51 12° W 19:06:48 10° WNW visible
